Погода в Шиховом

Россия / Кировская область     58°37′54″N   49°50′03″E
темп.,
°C
ветер,
м/с
пор.,
м/с
влажн.,
%
обл.,
%
осадки,
мм/ч
давл.,
гПа
погр.,
м
20 января, ср
ср2000:00−22с129590 0.0 101420
03:00−23ссз229682 0.0 101320
06:00−23зсз129980 0.0 101120
09:00−22зюз229987 0.1 101149
12:00−18зюз239587 0.1 1011205
15:00−18юз259789 0.1 1010222
18:00−17зюз379695 0.1 1011246
21:00−17зюз269797 0.3 1011183
21 января, чт
чт2100:00−18з239995 0.1 101276
03:00−19з2410097 0.1 101290
06:00−21з2310097 0.0 101254
09:00−21з259998 0.1 1013123
12:00−18з3593100 0.0 1013312
15:00−17з2695100 0.0 1013304
18:00−20зсз2299100 0.0 101341
21:00−22сз229987 0.0 101420
22 января, пт
пт2200:00−25ссз22980 0.0 101520
03:00−27ссз22974 0.0 101720
06:00−28с22970 0.0 101821
09:00−28ссв12960 0.0 102024
12:00−23св13904 0.0 1022230
15:00−24всв129527 0.0 102320
18:00−26в239635 0.0 102526
21:00−26вюв259659 0.0 1026124
23 января, сб
сб2300:00−23юв3994100 0.0 1026264
03:00−22юв4893100 0.0 1025330
06:00−21юв51092100 0.0 1024362
09:00−20ююв51297100 0.4 1022400
12:00−17ююв51195100 1.3 1020478
15:00−16ююв4894100 1.9 1018424
18:00−15юв4895100 0.3 1017338
21:00−13юв3895100 0.6 1016284
24 января, вс
вс2400:00−10юв3795100 0.6 1015238
03:00−7юв3696100 1.5 1014193
06:00+1юз31099100 1.6 1013393
09:00+1зюз3899100 2.1 1013292
12:00+1зюз2699100 0.2 1014240
15:000юз259899 0.2 1015156
18:00−2юз249990 0.0 101791
21:00−1ююз129992 0.1 101832